Muscle Shoals, AL

4:25 PM CDT on May 24, 2018 (GMT -0500)
Northwest Alabama Regional

Weather History for KMSL - March, 2013

Change the Weather History Date:

Tuesday, March 12, 2013

  Actual Average Record
Temperature  
Mean Temperature 46 °F 52 °F  
Max Temperature 58 °F 63 °F 86 °F (1967)
Min Temperature 33 °F 41 °F 19 °F (1998)
Degree Days  
Heating Degree Days 19 13  
Month to date heating degree days 231 175  
Since 1 July heating degree days 2447 2710  
Cooling Degree Days 0 0  
Month to date cooling degree days 0 0  
Year to date cooling degree days 7 1  
Moisture  
Dew Point 28 °F    
Average Humidity 56    
Maximum Humidity 82    
Minimum Humidity 30    
Precipitation  
Precipitation 0.00 in 0.15 in 5.20 in (1920)
Month to date precipitation 1.87 1.83  
Year to date precipitation 13.37 11.10  
Snow  
Snow 0.00 in - - ()
Month to date snowfall T  
Since 1 July snowfall T  
Snow Depth 0.00 in    
Sea Level Pressure  
Sea Level Pressure 30.12 in    
Wind  
Wind Speed 6 mph (NW)    
Max Wind Speed 16 mph    
Max Gust Speed 21 mph    
Visibility 10 miles    
Events      
T = Trace of Precipitation, MM = Missing Value Source: NWS Daily Summary

Daily Weather History Graph

Daily Weather History Graph

Search for Another Location

Airport or City:

Astronomy

Mar. 12, 2013 Rise Set
Actual Time 7:04 AM CDT 6:55 PM CDT
Civil Twilight 6:39 AM CDT 7:21 PM CDT
Nautical Twilight 6:10 AM CDT 7:50 PM CDT
Astronomical Twilight 5:41 AM CDT 8:19 PM CDT
Moon 7:14 AM CDT (3/12) 8:05 PM CDT (3/12)
Length of Visible Light 12h 41m
Length of Day
11h 51m
New Moon, 1% of the Moon is Illuminated
Mar 12
New Moon
Mar 19
First Quarter
Mar 27
Full
Apr 2
Last Quarter
Apr 10
New

Hourly Weather History & Observations

Time (CDT) Temp. Windchill Dew Point Humidity Pressure Visibility Wind Dir Wind Speed Gust Speed Precip Events Conditions
12:53 AM 37.9 °F 35.5 °F 30.0 °F 73% 30.04 in 10.0 mi NW 3.5 mph - N/A   Clear
1:53 AM 37.9 °F 35.5 °F 30.0 °F 73% 30.04 in 10.0 mi NNW 3.5 mph - N/A   Clear
2:53 AM 37.0 °F 33.3 °F 28.9 °F 73% 30.04 in 10.0 mi NW 4.6 mph - N/A   Clear
3:53 AM 34.0 °F 28.8 °F 28.0 °F 79% 30.04 in 10.0 mi NW 5.8 mph - N/A   Clear
4:53 AM 34.0 °F 31.0 °F 28.0 °F 79% 30.05 in 10.0 mi NW 3.5 mph - N/A   Clear
5:53 AM 33.1 °F 28.7 °F 28.0 °F 82% 30.07 in 10.0 mi WNW 4.6 mph - N/A   Clear
6:53 AM 34.0 °F 31.0 °F 28.0 °F 79% 30.09 in 10.0 mi NW 3.5 mph - N/A   Clear
7:53 AM 34.0 °F 31.0 °F 28.9 °F 82% 30.10 in 10.0 mi NW 3.5 mph - N/A   Clear
8:53 AM 39.9 °F 36.7 °F 30.0 °F 68% 30.11 in 9.0 mi NNW 4.6 mph - N/A   Clear
9:53 AM 43.0 °F 38.8 °F 30.0 °F 60% 30.16 in 10.0 mi NW 6.9 mph - N/A   Clear
10:53 AM 46.0 °F 39.9 °F 30.0 °F 54% 30.19 in 10.0 mi WNW 13.8 mph - N/A   Clear
11:53 AM 48.0 °F - 28.9 °F 48% 30.17 in 10.0 mi West 8.1 mph - N/A   Clear
12:53 PM 51.1 °F - 30.0 °F 44% 30.16 in 10.0 mi NW 9.2 mph - N/A   Clear
1:53 PM 53.1 °F - 30.0 °F 41% 30.14 in 10.0 mi NW 10.4 mph 16.1 mph N/A   Clear
2:53 PM 55.9 °F - 30.0 °F 37% 30.13 in 10.0 mi WNW 13.8 mph 17.3 mph N/A   Clear
3:53 PM 57.9 °F - 30.0 °F 35% 30.12 in 10.0 mi NW 11.5 mph 20.7 mph N/A   Clear
4:53 PM 57.9 °F - 26.1 °F 30% 30.11 in 10.0 mi NW 8.1 mph - N/A   Clear
5:53 PM 55.9 °F - 26.1 °F 32% 30.12 in 10.0 mi WNW 11.5 mph - N/A   Clear
6:53 PM 53.1 °F - 25.0 °F 34% 30.14 in 10.0 mi WNW 10.4 mph - N/A   Clear
7:53 PM 50.0 °F - 26.1 °F 39% 30.15 in 10.0 mi NNW 4.6 mph - N/A   Clear
8:53 PM 46.9 °F - 28.9 °F 50% 30.17 in 10.0 mi NW 4.6 mph - N/A   Clear
9:53 PM 46.9 °F - 28.0 °F 48% 30.19 in 10.0 mi NW 4.6 mph - N/A   Clear
10:53 PM 45.0 °F - 27.0 °F 49% 30.20 in 10.0 mi Calm Calm - N/A   Clear
11:53 PM 39.0 °F - 28.0 °F 65% 30.19 in 10.0 mi Calm Calm - N/A   Clear